Home   Weather   Nannestad   Past weeks

Flag for Norway Past Weather in Nannestad, Norway — Yesterday and Last 2 Weeks

Now
63 °F

Clear.


Feels Like: 63 °F
Forecast: 50 / 70 °F
Wind: 2 mph from North

Location: Oslo Gardermoen Airport

Current Time: Jul 21, 2017 at 12:27:52 am

Latest Report: Jul 20, 2017 at 11:50 pm


Visibility: 10 mi

Pressure: 29.89 "Hg

Humidity: 49%

Dew Point: 43 °F

Location of NannestadLocation

Past Weather in Nannestad — Graph

°F

Nannestad Temperature Yesterday

Maximum temperature yesterday: 75 °F (at 6:20 pm)
Minimum temperature yesterday: 46 °F (at 3:50 am)
Average temperature yesterday: 62 °F

High & Low Weather Summary for the Past Weeks

 TemperatureHumidityPressure
High75 °F (Jul 20, 6:20 pm)100% (Jul 16, 11:50 am)30.12 "Hg (Jul 16, 11:50 am)
Low45 °F (Jul 6, 3:20 am)29% (Jul 20, 6:20 pm)29.50 "Hg (Jul 12, 2:50 am)
Average59 °F64%29.84 "Hg
* Reported Jul 5 10:20 pm — Jul 20 10:50 pm, Nannestad. Weather by CustomWeather, © 2017

Note: Actual official high and low records may vary slightly from our data, if they occured in-between our weather recording intervals... More about our weather records

Advertising

Nannestad Weather History for the Previous 24 Hours

Scroll right to see more
 ConditionsComfort  
Time TempWeatherWind HumidityBarometerVisibility
10:50 pm
Thu, Jul 20
66 °FClear.9 mph40%29.89 "Hg10 mi
10:20 pm68 °FClear.8 mph40%29.89 "Hg10 mi
9:20 pm72 °FPassing clouds.3 mph33%29.86 "HgN/A
8:50 pm72 °FPassing clouds.5 mph38%29.86 "HgN/A
7:50 pm73 °FPassing clouds.6 mph33%29.86 "HgN/A
7:20 pm73 °FPassing clouds.7 mph31%29.86 "HgN/A
6:50 pm73 °FPassing clouds.6 mph33%29.86 "HgN/A
6:20 pm75 °FPassing clouds.6 mph29%29.86 "HgN/A
5:50 pm73 °FPassing clouds.7 mph33%29.86 "HgN/A
5:20 pm73 °FPassing clouds.6 mph33%29.86 "HgN/A
4:50 pm73 °FPassing clouds.7 mph31%29.89 "HgN/A
4:20 pm73 °FPassing clouds.8 mph33%29.89 "HgN/A
3:20 pm72 °FPassing clouds.8 mph33%29.89 "HgN/A
2:50 pm72 °FPassing clouds.8 mph33%29.89 "HgN/A
1:50 pm72 °FSunny.6 mph41%29.92 "Hg10 mi
1:20 pm70 °FPassing clouds.8 mph38%29.92 "HgN/A
12:50 pm70 °FPassing clouds.8 mph40%29.92 "HgN/A
12:20 pm70 °FPassing clouds.8 mph43%29.92 "HgN/A
11:50 am68 °FPassing clouds.9 mph46%29.95 "HgN/A
11:20 am68 °FPassing clouds.5 mph46%29.95 "HgN/A
10:50 am66 °FPassing clouds.6 mph49%29.95 "HgN/A
10:20 am64 °FPassing clouds.5 mph52%29.95 "HgN/A
9:50 am63 °FPassing clouds.3 mph59%29.95 "HgN/A
9:20 am61 °FSunny.2 mph59%29.95 "Hg10 mi
8:50 am61 °FSunny.1 mph59%29.95 "Hg10 mi
8:20 am59 °FSunny.No wind63%29.98 "Hg10 mi
7:50 am55 °FSunny.No wind72%29.95 "Hg10 mi
7:20 am54 °FSunny.3 mph77%29.98 "Hg10 mi
6:50 am52 °FSunny.2 mph77%29.98 "Hg10 mi
6:20 am50 °FSunny.2 mph82%29.98 "Hg10 mi
5:50 am48 °FSunny.2 mph82%29.98 "Hg10 mi
5:20 am48 °FSunny.2 mph82%29.98 "Hg10 mi
4:50 am46 °FSunny.2 mph87%29.98 "Hg10 mi
4:20 am46 °FClear.3 mph82%29.98 "Hg10 mi
3:50 am46 °FClear.3 mph87%29.98 "Hg10 mi
3:20 am48 °FClear.3 mph82%29.98 "Hg10 mi
2:50 am50 °FClear.2 mph76%30.01 "Hg10 mi
2:20 am48 °FClear.3 mph82%30.01 "Hg10 mi
1:50 am50 °FPassing clouds.3 mph76%30.01 "HgN/A
1:20 am52 °FClear.3 mph77%30.01 "Hg10 mi
12:20 am54 °FPassing clouds.3 mph72%30.01 "HgN/A
Weather by CustomWeather, © 2017

See weather overviewHow to use our weather pages